Home   Weather   Opfikon   Past weeks

Flag for Switzerland Past Weather in Opfikon, Zurich, Switzerland — Yesterday and Last 2 Weeks

Now
63 °F

Mild.


Feels Like: 63 °F
Forecast: 46 / 71 °F
Wind: 5 mph from Southwest

Location: Zuerich-Fluntern

Current Time: Sep 29, 2016 at 12:14:12 PM

Latest Report: Sep 29, 2016 at 11:00 AM


Visibility: N/A

Pressure: 30.27 "Hg

Humidity: 73%

Dew Point: 54 °F

Location of OpfikonLocation

Past Weather in Opfikon — Graph

°F

Opfikon Temperature Yesterday

Maximum temperature yesterday: 69 °F (at 3:00 PM)
Minimum temperature yesterday: 53 °F (at 4:00 AM)
Average temperature yesterday: 60 °F

High & Low Weather Summary for the Past Weeks

 TemperatureHumidityPressure
High80 °F (Sep 14, 3:00 PM)100% (Sep 20, 3:00 AM)30.46 "Hg (Sep 20, 3:00 AM)
Low46 °F (Sep 22, 5:00 AM)46% (Sep 14, 6:00 PM)29.78 "Hg (Sep 15, 3:00 AM)
Average58 °F82%30.11 "Hg
* Reported Sep 14 10:00 AM — Sep 29 10:00 AM, Opfikon, Weather by CustomWeather, © 2016

Note: Actual official high and low records may vary slightly from our data, if they occured in-between our weather recording intervals... More about our weather records

Advertising

Opfikon Weather History for the Previous 24 Hours

Scroll right to see more
 ConditionsComfort  
Time TempWeatherWind HumidityBarometerVisibility
10:00 AM
Thu, Sep 29
59 °FCool.2 mph79%30.30 "HgN/A
9:00 AM56 °FCool.3 mph89%30.31 "HgN/A
8:00 AM55 °FCool.3 mph92%30.32 "HgN/A
7:00 AM54 °FCool.1 mph94%30.33 "HgN/A
6:00 AM54 °FCool.2 mph94%30.34 "HgN/A
5:00 AM55 °FCool.1 mph94%30.34 "HgN/A
4:00 AM56 °FCool.2 mph92%30.36 "HgN/A
3:00 AM55 °FCool.1 mph94%30.38 "HgN/A
2:00 AM56 °FCool.No wind93%30.39 "HgN/A
1:00 AM58 °FCool.No wind89%30.39 "HgN/A
12:00 AM57 °FCool.1 mph91%30.40 "HgN/A
11:00 PM
Wed, Sep 28
57 °FCool.No wind89%30.41 "HgN/A
10:00 PM58 °FCool.1 mph84%30.40 "HgN/A
9:00 PM60 °FCool.1 mph82%30.40 "HgN/A
8:00 PM61 °FCool.1 mph74%30.39 "HgN/A
7:00 PM64 °FMild.2 mph66%30.37 "HgN/A
6:00 PM68 °FMild.5 mph51%30.35 "HgN/A
5:00 PM69 °FMild.6 mph54%30.34 "HgN/A
4:00 PM69 °FMild.7 mph51%30.34 "HgN/A
3:00 PM69 °FMild.6 mph51%30.36 "HgN/A
2:00 PM67 °FSunny.6 mph62%30.39 "HgN/A
1:00 PM66 °FMild.5 mph67%30.40 "HgN/A
12:00 PM63 °FMild.3 mph75%30.43 "HgN/A
Weather by CustomWeather, © 2016

See weather overviewHow to use our weather pages